{"data":{"norad_id":65599,"intl_designator":"2025-207H","name":"STARLINK-35245","alt_names":[],"object_type":"PAYLOAD","status":"ACTIVE","operator":null,"country":"US","launch_date":"2025-09-13","launch_site_code":"AFWTR","launch_vehicle":null,"mission":null,"orbit_class":"UNKNOWN","rcs_meters":null,"size_class":null,"mass_kg":null,"dimensions":null,"purposes":["comms"],"wikipedia_slug":null,"has_3d_model":false,"image_url":null,"decayed_at":null,"tle_current":{"epoch":"2026-09-20T22:00:03.000096Z","epoch_age_seconds":75934,"freshness":"FRESH","line1":"1 65599U 25207H   26263.91670139  .02469609  00000+0  77309-1 0  9997","line2":"2 65599  97.2855 326.3942 0001321  87.6056  78.4674 15.29660694  5649","mean_motion":15.29660694,"eccentricity":0.0001321,"inclination_deg":97.2855,"raan_deg":326.3942,"arg_perigee_deg":87.6056,"mean_anomaly_deg":78.4674,"bstar":0.077309,"rev_number":564,"period_min":94.138524030088,"perigee_km":475.92027242386,"apogee_km":477.73135359906,"semimajor_km":6854.9628130115,"source":"CELESTRAK","updated_at":"2026-09-21T09:00:35.654347Z"}}}